Location: *
(32.8140°S, 174.6161°E)
Time: 16:29:00
(UTC+00:00)

Cosmos 1932 - Pass Details

Date: 10 December 2019
Orbit: 922 x 1008 km, 65.0° (Epoch: 19 January)

Event Time Altitude Azimuth Distance (km) Brightness Sun altitude
Rises 14:05:59 0° 209° (SSW) 3,595 7.9 -28.2°
Reaches altitude 10° 14:08:32 10° 209° (SSW) 2,643 7.1 -28.0°
Maximum altitude 14:14:41 86° 296° (WNW) 936 4.2 -27.3°
Enters shadow 14:15:31 69° 17° (NNE) 994 4.3 -27.2°
